Flag for Germany Weather past 2 weeks in Crailsheim, Baden-Württemberg, Germany

Now
34 °F

Low clouds.


Feels Like: 25 °F
Forecast: 30 / 38 °F
Wind: 13 mph from Southwest

Location: Niederstetten

Current Time: Jan 28, 2015 at 11:07:26 AM

Latest Report: Jan 28, 2015 at 10:20 AM


Visibility: 5 mi

Pressure: 30.01 "Hg

Humidity: 93%

Dew point: 32 °F

Location of CrailsheimLocation

Historic Weather in Crailsheim — Graph

°F

Crailsheim temperature yesterday

Maximum temperature yesterday: 34 °F (at 12:20 PM)
Minimum temperature yesterday: 32 °F (at 12:20 AM)
Average temperature yesterday: 32 °F

Past Weeks' High & Low Weather Summary

 TemperatureHumidityPressure
High54 °F (Jan 13, 2:20 PM)100% (Jan 16, 10:20 PM)30.36 "Hg (Jan 16, 10:20 PM)
Low23 °F (Jan 21, 12:20 AM)41% (Jan 13, 2:20 PM)29.68 "Hg (Jan 16, 2:20 PM)
Average34 °F90%29.97 "Hg
* Reported Jan 13 9:20 AM — Jan 28 9:20 AM, Crailsheim, Weather by CustomWeather, © 2014

Note: Actual official high and low records may vary slightly from our data, if they occured in-between our weather recording intervals... More about our weather records

Advertising

Crailsheim weather history for previous 24 hours

 ConditionsComfort  
Time TempWeatherWind HumidityBarometerVisibility
9:20 AM
Jan 28
32 °FLow clouds.15 mph100%30.04 "Hg4 mi
8:48 AM32 °FIce fog.13 mph100%30.04 "Hg2 mi
8:20 AM32 °FSnow flurries. Ice fog.13 mph100%30.07 "Hg1 mi
7:20 AM32 °FLight snow. Fog.14 mph100%30.07 "Hg0 mi
7:04 AM32 °FLight snow. Ice fog.14 mph100%30.07 "Hg1 mi
6:56 AM32 °FLight snow. Ice fog.14 mph100%30.07 "Hg1 mi
6:20 AM32 °FLight snow. Fog.10 mph100%30.07 "Hg0 mi
5:20 AM32 °FLight snow. Fog.14 mph100%30.09 "Hg0 mi
4:20 AM32 °FFog.10 mph100%30.09 "Hg0 mi
3:54 AM32 °FFog.9 mph100%30.09 "Hg1 mi
3:20 AM32 °FLight snow. Ice fog.9 mph100%30.12 "Hg1 mi
2:20 AM32 °FLight snow. Fog.12 mph100%30.12 "Hg0 mi
1:20 AM32 °FFog.10 mph100%30.12 "Hg1 mi
12:20 AM32 °FIce fog.9 mph100%30.12 "Hg1 mi
11:20 PM
Jan 27
32 °FIce fog.10 mph100%30.12 "Hg1 mi
10:20 PM32 °FIce fog.9 mph100%30.12 "Hg1 mi
9:20 PM32 °FIce fog.10 mph100%30.15 "Hg2 mi
8:20 PM32 °FIce fog.10 mph100%30.12 "Hg3 mi
7:20 PM32 °FLight snow. Ice fog.8 mph100%30.12 "Hg1 mi
7:00 PM32 °FSnow flurries. Ice fog.9 mph100%30.12 "Hg2 mi
6:20 PM32 °FSnow showers. Low clouds.9 mph100%30.12 "Hg1 mi
5:59 PM34 °FSnow showers. Low clouds.9 mph93%30.12 "Hg1 mi
5:20 PM34 °FScattered showers. Passing clouds.12 mph93%30.12 "Hg6 mi
4:20 PM34 °FLight snow. Partly sunny.10 mph93%30.09 "HgN/A
3:20 PM34 °FLight snow. Mostly cloudy.10 mph93%30.09 "HgN/A
2:20 PM34 °FLight snow. Mostly cloudy.12 mph93%30.09 "Hg3 mi
1:20 PM34 °FMostly cloudy.12 mph93%30.09 "HgN/A
12:58 PM34 °FSnow. Mostly cloudy.13 mph93%30.09 "Hg2 mi
12:20 PM34 °FLight snow. Mostly cloudy.13 mph93%30.09 "Hg6 mi
12:02 PM32 °FLight snow. Mostly cloudy.14 mph100%30.12 "Hg3 mi
11:20 AM32 °FPartly sunny.13 mph93%30.12 "HgN/A
Weather by CustomWeather, © 2014

See weather overviewHow to use our weather pages